Location: Plzen
(49.7500°N, 13.3670°E)
Time: 02:29:51
(UTC+01:00)

ISS - Pass Details

Date: 04 October 2020
Orbit: 417 x 420 km, 51.6° (Epoch: 25 October)

Event Time Altitude Azimuth Distance (km) Brightness Sun altitude
Rises 20:20:05 0° 286° (WNW) 2,369 1.9 -17.3°
Reaches altitude 10° 20:22:26 10° 271° (W) 1,502 0.3 -17.6°
Maximum altitude 20:25:10 23° 217° (SW) 941 -1.8 -18.1°
Enters shadow 20:26:34 18° 182° (S) 1,114 -1.8 -18.3°
